Regional Weather Roundup
Issued by NWS Boston, MA

Home | Current Version | Previous Version | Text Only | Print | Product List | Glossary On
Versions: 1 2 3 4 5 6 7 8 9 10 11 12 13 14 15 16 17 18 19 20 21 22 23 24 25 26 27 28 29 30 31 32 33 34 35 36 37 38 39 40 41 42 43 44 45 46 47 48 49 50
000
ASUS41 KBOX 221410
RWRBOX

REGIONAL WEATHER ROUNDUP
NATIONAL WEATHER SERVICE TAUNTON MA
1000 AM EDT FRI SEP 22 2017

NOTE:  "FAIR" INDICATES FEW OR NO CLOUDS BELOW 12,000 FEET WITH NO
SIGNIFICANT WEATHER AND/OR OBSTRUCTIONS TO VISIBILITY.

MAZALL-221500-
EASTERN MASSACHUSETTS

CITY           SKY/WX    TMP DP  RH WIND       PRES   REMARKS
BOSTON         CLOUDY    58  54  86 N22G31    30.02R
BEVERLY        CLOUDY    58  55  90 N17G28    30.03S
LAWRENCE       CLOUDY    63  53  70 NE16      30.08R
BEDFORD        CLOUDY    60  50  69 N18G29    30.03S
BLUE HILL        N/A     56  52  86 N24G41    29.99S
NORWOOD        CLOUDY    61  55  81 N15G26    30.01R
MARSHFIELD     CLOUDY    59  59 100 NE12G25   29.97S FOG
PLYMOUTH       LGT RAIN  59  56  89 N18G35    29.95S FOG
TAUNTON        LGT RAIN  58  55  90 N12G24    29.96S
NEW BEDFORD    LGT RAIN  58  56  93 N16G28    29.92R FOG
$$

MAZALL-221500-
CAPE COD AND THE ISLANDS

CITY           SKY/WX    TMP DP  RH WIND       PRES   REMARKS
FALMOUTH       LGT RAIN  59  59 100 N22G39    29.90S
HYANNIS        LGT RAIN  61  60  97 N20G30    29.86S FOG
CHATHAM        LGT RAIN  62  62 100 NE17G32   29.86S FOG
PROVINCETOWN   LGT RAIN  58  57  97 NE26G36   29.93S FOG
NANTUCKET      CLOUDY    62  62 100 NE29G47   29.78S FOG
MARTHAS VNYRD  LGT RAIN  61  58  90 N23G39    29.85S FOG
$$

MAZALL-221500-
CENTRAL AND WESTERN MASSACHUSETTS

CITY           SKY/WX    TMP DP  RH WIND       PRES   REMARKS
WORCESTER      CLOUDY    59  48  67 N21G35    30.03S
FITCHBURG      CLOUDY    64  50  60 N13G18    30.07R
ORANGE         CLOUDY    67  50  54 N12       30.07S
SPRINGFIELD    PTSUNNY   67  49  51 N16G24    30.03S
WESTFIELD      CLOUDY    68  47  46 N22G32    30.05S
NORTH ADAMS    MOSUNNY   59  54  83 W5        30.11S
PITTSFIELD     MOSUNNY   63  44  50 N6        30.10R
$$

RIZALL-221500-
RHODE ISLAND

CITY           SKY/WX    TMP DP  RH WIND       PRES   REMARKS
PROVIDENCE     CLOUDY    60  56  86 N24G32    29.98R
NEWPORT        LGT RAIN  58  58 100 N22G32    29.92S FOG
BLOCK ISLAND   LGT RAIN  59  57  93 N23G37    29.91R
SMITHFIELD     LGT RAIN  57  54  88 N17G28    29.99S
WESTERLY       CLOUDY    64  55  72 N17G30    29.94R
$$

CTZALL-221500-
CONNECTICUT

CITY           SKY/WX    TMP DP  RH WIND       PRES   REMARKS
BRADLEY INTL   MOSUNNY   70  49  47 N22G40    30.03S
HARTFORD       MOSUNNY   69  50  50 N20G30    30.00F
BRIDGEPORT     CLOUDY    72  52  49 N13G25    29.98S
DANBURY        MOSUNNY   69  49  48 N10       30.04F
GROTON         MOSUNNY   68  54  60 N25G36    29.92S
NEW HAVEN      MOSUNNY   71  50  47 N24G33    29.97F
CHESTER        PTSUNNY   68  54  60 N10G24    29.97S
MERIDEN        SUNNY     69  50  50 N15G31    30.00F
WILLIMANTIC    CLOUDY    68  54  60 N20G28    29.98F
OXFORD         MOSUNNY   69  51  52 N21       30.01F
$$

MEZ002-015-021-024-NHZ003-005-008-011-012-014-VTZ005-008-221500-
NORTHERN NEW ENGLAND

CITY           SKY/WX    TMP DP  RH WIND       PRES   REMARKS
PORTLAND ME    CLOUDY    60  48  64 N9        30.11F
BANGOR ME      CLOUDY    60  48  64 N10       30.18S
CONCORD NH     CLOUDY    66  49  54 N16       30.10S
MANCHESTER NH  CLOUDY    65  49  56 NE16G24   30.07R
NASHUA NH      CLOUDY    63  51  65 N8        30.08R
PORTSMOUTH NH  CLOUDY    61  50  68 NE16G29   30.07S
JAFFREY NH     CLOUDY    62  49  62 VRB7      30.10S
KEENE NH       CLOUDY    69  46  43 N15       30.10S
BURLINGTON VT  MOSUNNY   64  56  75 N7        30.15F
MT. WASHINGTON MOSUNNY   50  12  22 E28G40      N/A
$$

NYZ052-076-221500-
EASTERN NEW YORK

CITY           SKY/WX    TMP DP  RH WIND       PRES   REMARKS
ALBANY         PTSUNNY   68  56  65 N7        30.12S
NEW YORK CITY  MOSUNNY   71  50  47 N15G24    30.01S
$$

ANZALL-221500-
MARINE OBSERVATIONS

STATION/POSITION TIME  TEMP    WIND        PRES    VSBY  WAVE
                       AIR SEA DIR/SP/G                  HT/PER
                 (UTC) (F)     (DEG/KT/KT) (MB)    (MI)  (FT/S)
BOSTON BUOY      1350   59 60   20/ 29/ 35 1014.7S        14/10
BUZZARDS BAY     1400   60     360/ 32/ 35 1011.2F
NANTUCKET SOUND  1250   61 61   20/ 31/ 37 1008.4          6/ 5
MASS BAY-STELLWA 1304   60 60   30/ 27/ 33 1015.4S        14/11
ISLE OF SHOALS   1400   59      20/ 29/ 33 1017.1R
S OF BLOCK IS    NOT AVBL
$$

......................KEY.........................
  SKY/WX - SKY CONDITION/PRESENT WEATHER
  TMP    - TEMPERATURE IN FAHRENHEIT
  DWPT   - DEWPOINT IN FAHRENHEIT
  RH     - RELATIVE HUMIDITY IN PERCENT
  WIND   - DIRECTION AND SPEED IN MPH
  PRES   - MEAN SEA LEVEL PRESSURE IN INCHES OF HG
  WCI    - WIND CHILL INDEX
  VSB    - VISIBILITY IN MILES
  HX     - HEAT INDEX
  TC     - TEMPERATURE IN CELSIUS
  VRB    - VARIABLE WIND DIRECTION
  N/A    - NOT AVAILABLE



USA.gov is the U.S. government's official web portal to all federal, state and local government web resources and services.